Flag for Germany Weather past 2 weeks in Norden, Lower Saxony, Germany

Now
34 °F

Overcast.


Feels Like: 27 °F
Forecast: 33 / 42 °F
Wind: 8 mph from East

Location: Norderney

Current Time: Dec 27, 2014 at 4:08:41 PM

Latest Report: Dec 27, 2014 at 4:00 PM


Visibility: 11 mi

Pressure: 29.75 "Hg

Humidity: 76%

Dew point: 27 °F

Location of NordenLocation

Historic Weather in Norden — Graph

°F

Norden temperature yesterday

Maximum temperature yesterday: 39 °F (at 1:00 PM)
Minimum temperature yesterday: 31 °F (at 7:00 PM)
Average temperature yesterday: 35 °F

Past Weeks' High & Low Weather Summary

 TemperatureHumidityPressure
High51 °F (Dec 22, 9:00 AM)100% (Dec 18, 11:00 AM)30.37 "Hg (Dec 18, 11:00 AM)
Low31 °F (Dec 26, 7:00 PM)59% (Dec 25, 12:00 PM)29.15 "Hg (Dec 12, 3:00 PM)
Average43 °F86%29.82 "Hg
* Reported Dec 12 3:00 PM — Dec 27 3:00 PM, Norden, Weather by CustomWeather, © 2014

Note: Actual official high and low records may vary slightly from our data, if they occured in-between our weather recording intervals... More about our weather records

Advertising

Norden weather history for previous 24 hours

 ConditionsComfort  
Time TempWeatherWind HumidityBarometerVisibility
3:00 PM
Dec 27
34 °FOvercast.8 mph78%29.73 "Hg14 mi
2:00 PM34 °FOvercast.7 mph79%29.72 "Hg14 mi
1:00 PM34 °FOvercast.8 mph79%29.73 "Hg12 mi
12:00 PM33 °FLow clouds.7 mph83%29.74 "Hg6 mi
11:00 AM32 °FLow clouds.7 mph87%29.74 "Hg5 mi
10:00 AM32 °FLow clouds.7 mph89%29.74 "Hg5 mi
9:00 AM32 °FFog.7 mph91%29.74 "Hg4 mi
8:00 AM33 °FFog.6 mph94%29.75 "Hg2 mi
7:00 AM33 °FFog.7 mph96%29.77 "Hg1 mi
6:00 AM33 °FFog.7 mph96%29.80 "Hg1 mi
5:00 AM34 °FFog.7 mph97%29.85 "Hg1 mi
4:00 AM34 °FFog.7 mph98%29.89 "Hg1 mi
3:00 AM33 °FLow clouds.6 mph100%29.94 "Hg1 mi
2:00 AM33 °FLow clouds.7 mph100%29.98 "Hg0 mi
1:00 AM32 °FLow clouds.7 mph100%30.02 "Hg1 mi
12:00 AM32 °FLow clouds.6 mph100%30.06 "Hg1 mi
11:00 PM
Dec 26
31 °FLow clouds.6 mph100%30.10 "Hg1 mi
10:00 PM31 °FLow clouds.5 mph100%30.13 "Hg0 mi
9:00 PM32 °FFog.6 mph100%30.17 "Hg0 mi
8:00 PM31 °FFog.6 mph100%30.20 "Hg1 mi
7:00 PM31 °FFog.6 mph100%30.22 "Hg1 mi
6:00 PM32 °FFog.6 mph100%30.25 "Hg1 mi
5:00 PM33 °FFog.6 mph98%30.27 "Hg1 mi
4:00 PM36 °FPartly sunny.5 mph93%30.28 "Hg19 mi
Weather by CustomWeather, © 2014

See weather overviewHow to use our weather pages